Location: ??????????
(41.2581°N, 22.8006°E)
Time: 23:50:03
(UTC+00:00)

GEOS 3 Rocket - Pass Details

Date: 15 March 2026
Orbit: 767 x 846 km, 115.0° (Epoch: 13 April)

Event Time Altitude Azimuth Distance (km) Brightness Sun altitude
Rises 03:07:12 0° 31° (NNE) 3,413 7.6 -18.3°
Reaches altitude 10° 03:09:34 10° 27° (NNE) 2,474 6.7 -17.9°
Maximum altitude 03:14:49 54° 312° (NW) 1,017 3.9 -16.9°
Enters shadow 03:17:46 25° 246° (WSW) 1,624 4.6 -16.4°
